Stündliche Wetter Bolshie Duravki

Heute, 25 November, Mittwoch

Zeit Temperatur Niederschläge Wind Luftdruck Luftfeuchtigkeit
00:00 0°C° 0.1 mm 3 m/S 742 mmHg 94%
01:00 +1°C° 0.1 mm 2 m/S 742 mmHg 96%
02:00 +3°C° 0 mm 1 m/S 741 mmHg 98%
03:00 +3°C° 0.3 mm 1 m/S 741 mmHg 98%
04:00 +3°C° 0.3 mm 1 m/S 741 mmHg 98%
05:00 +3°C° 0.3 mm 1 m/S 741 mmHg 98%
06:00 +3°C° 1.1 mm 1 m/S 741 mmHg 98%
07:00 +3°C° 1.1 mm 1 m/S 741 mmHg 98%
08:00 +3°C° 0 mm 1 m/S 741 mmHg 97%
09:00 +3°C° 0.6 mm 1 m/S 741 mmHg 97%
10:00 +3°C° 0.6 mm 1 m/S 741 mmHg 97%
11:00 +3°C° 0.6 mm 1 m/S 741 mmHg 97%
12:00 +3°C° 0 mm 1 m/S 742 mmHg 96%
13:00 +4°C° 0 mm 1 m/S 742 mmHg 95%
14:00 +3°C° 0 mm 0 m/S 743 mmHg 94%
15:00 +2°C° 0 mm 0 m/S 743 mmHg 95%
16:00 +3°C° 0 mm 1 m/S 743 mmHg 95%
17:00 +3°C° 0 mm 1 m/S 744 mmHg 95%
18:00 +2°C° 0 mm 1 m/S 744 mmHg 95%
19:00 +2°C° 0 mm 1 m/S 744 mmHg 95%
20:00 +2°C° 0 mm 1 m/S 745 mmHg 95%
21:00 +2°C° 0 mm 1 m/S 745 mmHg 95%
22:00 +1°C° 0 mm 2 m/S 745 mmHg 96%
23:00 +1°C° 0 mm 2 m/S 745 mmHg 96%

Morgen, 26 November, Donnerstag

Zeit Temperatur Niederschläge Wind Luftdruck Luftfeuchtigkeit
00:00 0°C° 0 mm 3 m/S 745 mmHg 96%
01:00 0°C° 0 mm 3 m/S 745 mmHg 96%
02:00 +1°C° 0 mm 3 m/S 745 mmHg 96%
03:00 +1°C° 0.3 mm 3 m/S 745 mmHg 96%
04:00 +2°C° 0.3 mm 3 m/S 744 mmHg 97%
05:00 +2°C° 0.3 mm 3 m/S 744 mmHg 98%
06:00 +2°C° 0.2 mm 3 m/S 744 mmHg 98%
07:00 +3°C° 0.2 mm 3 m/S 744 mmHg 97%
08:00 +3°C° 0.2 mm 3 m/S 744 mmHg 97%
09:00 +4°C° 0 mm 3 m/S 744 mmHg 96%
10:00 +4°C° 0 mm 4 m/S 743 mmHg 95%
11:00 +4°C° 0 mm 4 m/S 743 mmHg 95%
12:00 +4°C° 0 mm 4 m/S 743 mmHg 92%
13:00 +4°C° 0 mm 4 m/S 743 mmHg 89%
14:00 +4°C° 0 mm 4 m/S 743 mmHg 86%
15:00 +3°C° 0 mm 4 m/S 742 mmHg 86%
16:00 +1°C° 0 mm 4 m/S 742 mmHg 86%
17:00 0°C° 0 mm 4 m/S 742 mmHg 87%
18:00 0°C° 0 mm 4 m/S 741 mmHg 87%
19:00 -1°C° 0 mm 4 m/S 741 mmHg 86%
20:00 -1°C° 0 mm 4 m/S 741 mmHg 86%
21:00 -2°C° 0 mm 4 m/S 741 mmHg 87%
22:00 -2°C° 0 mm 4 m/S 740 mmHg 88%
23:00 -2°C° 0 mm 5 m/S 740 mmHg 89%

übermorgen, 27 November, Freitag

Zeit Temperatur Niederschläge Wind Luftdruck Luftfeuchtigkeit
00:00 -2°C° 0 mm 4 m/S 740 mmHg 89%
01:00 -2°C° 0 mm 4 m/S 740 mmHg 90%
02:00 -2°C° 0 mm 4 m/S 739 mmHg 90%
03:00 -2°C° 0 mm 4 m/S 739 mmHg 89%
04:00 -2°C° 0 mm 5 m/S 739 mmHg 89%
05:00 -2°C° 0 mm 5 m/S 738 mmHg 89%
06:00 -2°C° 0 mm 4 m/S 738 mmHg 89%
07:00 -2°C° 0 mm 4 m/S 738 mmHg 90%
08:00 -2°C° 0 mm 4 m/S 738 mmHg 90%
09:00 -1°C° 0.1 mm 4 m/S 737 mmHg 91%
10:00 -1°C° 0.1 mm 5 m/S 737 mmHg 92%
11:00 -1°C° 0.1 mm 5 m/S 737 mmHg 93%
12:00 0°C° 0.1 mm 5 m/S 737 mmHg 92%
13:00 0°C° 0.1 mm 5 m/S 736 mmHg 92%
14:00 +1°C° 0.1 mm 5 m/S 736 mmHg 91%
15:00 +1°C° 0.1 mm 5 m/S 736 mmHg 93%
16:00 +1°C° 0.1 mm 4 m/S 736 mmHg 95%
17:00 0°C° 0.1 mm 4 m/S 736 mmHg 97%
18:00 0°C° 0.2 mm 4 m/S 737 mmHg 96%
19:00 0°C° 0.2 mm 4 m/S 737 mmHg 95%
20:00 0°C° 0.2 mm 4 m/S 737 mmHg 95%
21:00 -1°C° 0.1 mm 4 m/S 738 mmHg 93%
22:00 -1°C° 0.1 mm 3 m/S 738 mmHg 92%
23:00 -1°C° 0.1 mm 3 m/S 739 mmHg 90%

28 November, Samstag

Zeit Temperatur Niederschläge Wind Luftdruck Luftfeuchtigkeit
00:00 -1°C° 0.1 mm 3 m/S 739 mmHg 92%
01:00 -2°C° 0.1 mm 3 m/S 740 mmHg 93%
02:00 -2°C° 0.1 mm 2 m/S 740 mmHg 95%
03:00 -2°C° 0 mm 2 m/S 740 mmHg 94%
04:00 -2°C° 0 mm 2 m/S 741 mmHg 94%
05:00 -2°C° 0 mm 2 m/S 741 mmHg 94%
06:00 0°C° 0 mm 1 m/S 741 mmHg 92%
07:00 0°C° 0 mm 1 m/S 742 mmHg 91%
08:00 0°C° 0 mm 1 m/S 742 mmHg 90%
09:00 0°C° 0 mm 1 m/S 743 mmHg 86%
10:00 +1°C° 0 mm 1 m/S 743 mmHg 83%
11:00 +1°C° 0 mm 1 m/S 744 mmHg 79%
12:00 +1°C° 0 mm 1 m/S 744 mmHg 77%
13:00 +1°C° 0 mm 1 m/S 744 mmHg 76%
14:00 +1°C° 0 mm 1 m/S 745 mmHg 74%
15:00 +1°C° 0 mm 1 m/S 745 mmHg 76%
16:00 +1°C° 0 mm 1 m/S 745 mmHg 77%
17:00 +1°C° 0 mm 1 m/S 745 mmHg 78%
18:00 +1°C° 0 mm 1 m/S 746 mmHg 78%
19:00 +1°C° 0 mm 1 m/S 746 mmHg 78%
20:00 +1°C° 0 mm 1 m/S 747 mmHg 78%
21:00 +1°C° 0 mm 1 m/S 747 mmHg 78%
22:00 +1°C° 0 mm 1 m/S 747 mmHg 78%
23:00 +1°C° 0 mm 1 m/S 748 mmHg 78%

29 November, Sonntag

Zeit Temperatur Niederschläge Wind Luftdruck Luftfeuchtigkeit
00:00 +1°C° 0 mm 1 m/S 748 mmHg 78%
01:00 -1°C° 0 mm 2 m/S 748 mmHg 77%
02:00 -1°C° 0 mm 2 m/S 748 mmHg 77%
03:00 -2°C° 0 mm 2 m/S 748 mmHg 78%
04:00 -2°C° 0 mm 2 m/S 748 mmHg 78%
05:00 -2°C° 0 mm 2 m/S 748 mmHg 79%
06:00 -2°C° 0 mm 3 m/S 748 mmHg 82%
07:00 -4°C° 0 mm 3 m/S 747 mmHg 86%
08:00 -4°C° 0 mm 3 m/S 747 mmHg 89%
09:00 -4°C° 0 mm 4 m/S 747 mmHg 87%
10:00 -4°C° 0 mm 5 m/S 747 mmHg 85%
11:00 -4°C° 0 mm 5 m/S 747 mmHg 83%
12:00 -2°C° 0.2 mm 5 m/S 746 mmHg 87%
13:00 -3°C° 0.2 mm 6 m/S 746 mmHg 91%
14:00 -3°C° 0.2 mm 6 m/S 745 mmHg 95%
15:00 -2°C° 0.4 mm 6 m/S 745 mmHg 96%
16:00 -1°C° 0.4 mm 6 m/S 744 mmHg 96%
17:00 -1°C° 0.4 mm 6 m/S 744 mmHg 97%
18:00 -1°C° 0.7 mm 6 m/S 744 mmHg 97%
19:00 -1°C° 0.7 mm 6 m/S 743 mmHg 96%
20:00 -1°C° 0.7 mm 6 m/S 743 mmHg 96%
21:00 -1°C° 0.3 mm 6 m/S 743 mmHg 96%
22:00 +1°C° 0.3 mm 6 m/S 743 mmHg 95%
23:00 +1°C° 0.3 mm 6 m/S 743 mmHg 95%

30 November, Montag

Zeit Temperatur Niederschläge Wind Luftdruck Luftfeuchtigkeit
00:00 +1°C° 0.3 mm 6 m/S 743 mmHg 95%
01:00 +1°C° 0.3 mm 5 m/S 743 mmHg 95%
02:00 +1°C° 0.3 mm 5 m/S 743 mmHg 95%
03:00 0°C° 0.1 mm 5 m/S 743 mmHg 93%
04:00 -1°C° 0.1 mm 5 m/S 743 mmHg 92%
05:00 -2°C° 0.1 mm 5 m/S 743 mmHg 90%
06:00 -2°C° 0 mm 5 m/S 743 mmHg 89%
07:00 -4°C° 0 mm 5 m/S 744 mmHg 88%
08:00 -4°C° 0 mm 5 m/S 744 mmHg 87%
09:00 -4°C° 0 mm 5 m/S 744 mmHg 86%
10:00 -4°C° 0 mm 5 m/S 745 mmHg 85%
11:00 -3°C° 0 mm 6 m/S 745 mmHg 84%
12:00 -3°C° 0 mm 6 m/S 745 mmHg 85%
13:00 -3°C° 0 mm 6 m/S 745 mmHg 86%
14:00 -3°C° 0 mm 6 m/S 746 mmHg 87%
15:00 -3°C° 0.1 mm 6 m/S 746 mmHg 89%
16:00 -2°C° 0.1 mm 5 m/S 746 mmHg 91%
17:00 -2°C° 0.1 mm 5 m/S 747 mmHg 93%
18:00 -2°C° 0.1 mm 5 m/S 747 mmHg 93%
19:00 -2°C° 0.1 mm 5 m/S 747 mmHg 94%
20:00 -1°C° 0.1 mm 5 m/S 748 mmHg 95%
21:00 -2°C° 0 mm 5 m/S 748 mmHg 94%
22:00 -2°C° 0 mm 4 m/S 748 mmHg 93%
23:00 -2°C° 0 mm 4 m/S 749 mmHg 92%
Mehr zeigen

Wir brauchen deine Erlaubnis

Meteoprog und unser Service Anbieter werden persönliche Daten aufbewahren, so wie Cookies, Geräte Bezeichnung oder ähnliche Technologien von deinem Gerät und Prozess, so wie Persönliche Daten Inhalte und Werbungen, genauso wie social Media und den Verkehr zu analysieren.

  • Aufbewahrung und/oder Zugang zu deiner Geräte Informationen.

    Cookies, Geräte Bezeichnung oder andere Informationen, können aufbewahrt oder Zugang zu deinem Gerät erhalten, für den Grund, der oben angegeben wird.

  • Personalisierte Werbung und Inhalte, Messungen, Einblick in das Publikum und Produkt Entwicklung.

    Werbungen und Inhalte können personalisiert werden, basierend auf ein Profil. Mehr Daten können besser personalisierte Werbungen und Inhalte hinzufügen. Werbung und Inhalte können gezeigt und gemessen werden. Einblicke über das Publikum, welche die Werbung gesehen haben und den Inhalt, können abgeleitet werden. So wie Daten können genutzt werden, um es zu verbessern oder die Benutzer Erfahrung zu verbessern das System und die Software.

Wenn du “Ich stimme zu” klickst, erlaubst du uns, die Cookies zu benutzen die Geräte Bezeichnung, den Web oder ähnliche Technologien zu benutzen. Deine Settings, können in deinem Gerät bei deinem Browser geändert werden.

Für den bestimmten Zweck, berechtigten Interessen beruhen darauf, mehr als auf den Inhalt. Du kannst mehr darüber in unseren Privaten und Cookie Politik lesen.